Hourly Weather Ovidiopol

Today, 10 July, Friday

Time Temperature Precipitation Wind Pressure Humidity
00:00 +19°C° 0 mm 3 mps 760 mmHg 61%
01:00 +20°C° 0 mm 2 mps 760 mmHg 59%
02:00 +20°C° 0 mm 2 mps 760 mmHg 58%
03:00 +20°C° 0 mm 2 mps 760 mmHg 58%
04:00 +20°C° 0 mm 2 mps 760 mmHg 58%
05:00 +20°C° 0 mm 2 mps 760 mmHg 59%
06:00 +21°C° 0 mm 2 mps 760 mmHg 55%
07:00 +24°C° 0 mm 2 mps 760 mmHg 52%
08:00 +25°C° 0 mm 2 mps 760 mmHg 49%
09:00 +26°C° 0 mm 3 mps 761 mmHg 46%
10:00 +27°C° 0 mm 3 mps 761 mmHg 43%
11:00 +28°C° 0 mm 3 mps 761 mmHg 40%
12:00 +28°C° 0 mm 3 mps 760 mmHg 40%
13:00 +29°C° 0 mm 3 mps 760 mmHg 39%
14:00 +29°C° 0 mm 3 mps 760 mmHg 39%
15:00 +29°C° 0 mm 3 mps 760 mmHg 39%
16:00 +28°C° 0 mm 3 mps 759 mmHg 40%
17:00 +28°C° 0 mm 3 mps 759 mmHg 40%
18:00 +27°C° 0 mm 2 mps 759 mmHg 44%
19:00 +25°C° 0 mm 2 mps 759 mmHg 47%
20:00 +24°C° 0 mm 1 mps 759 mmHg 51%
21:00 +23°C° 0 mm 1 mps 759 mmHg 51%
22:00 +23°C° 0 mm 1 mps 760 mmHg 52%
23:00 +23°C° 0 mm 1 mps 760 mmHg 53%

Tomorrow, 11 July, Saturday

Time Temperature Precipitation Wind Pressure Humidity
00:00 +23°C° 0 mm 1 mps 760 mmHg 54%
01:00 +21°C° 0 mm 2 mps 760 mmHg 55%
02:00 +21°C° 0 mm 2 mps 760 mmHg 56%
03:00 +21°C° 0 mm 2 mps 760 mmHg 61%
04:00 +21°C° 0 mm 3 mps 759 mmHg 66%
05:00 +21°C° 0 mm 3 mps 759 mmHg 70%
06:00 +24°C° 0 mm 3 mps 759 mmHg 65%
07:00 +26°C° 0 mm 3 mps 759 mmHg 59%
08:00 +27°C° 0 mm 3 mps 759 mmHg 53%
09:00 +28°C° 0 mm 4 mps 759 mmHg 50%
10:00 +29°C° 0 mm 4 mps 759 mmHg 47%
11:00 +29°C° 0 mm 4 mps 759 mmHg 44%
12:00 +30°C° 0 mm 4 mps 759 mmHg 42%
13:00 +30°C° 0 mm 4 mps 758 mmHg 41%
14:00 +30°C° 0 mm 4 mps 758 mmHg 39%
15:00 +30°C° 0 mm 3 mps 757 mmHg 38%
16:00 +30°C° 0 mm 3 mps 757 mmHg 37%
17:00 +30°C° 0 mm 2 mps 757 mmHg 36%
18:00 +28°C° 0 mm 2 mps 757 mmHg 40%
19:00 +26°C° 0 mm 1 mps 756 mmHg 45%
20:00 +25°C° 0 mm 1 mps 756 mmHg 49%
21:00 +24°C° 0 mm 1 mps 756 mmHg 50%
22:00 +24°C° 0 mm 1 mps 756 mmHg 50%
23:00 +23°C° 0 mm 1 mps 756 mmHg 50%

Day after tomorrow, 12 July, Sunday

Time Temperature Precipitation Wind Pressure Humidity
00:00 +23°C° 0 mm 2 mps 756 mmHg 52%
01:00 +23°C° 0 mm 2 mps 756 mmHg 54%
02:00 +22°C° 0 mm 3 mps 756 mmHg 56%
03:00 +21°C° 0 mm 3 mps 755 mmHg 60%
04:00 +21°C° 0 mm 3 mps 755 mmHg 63%
05:00 +21°C° 0 mm 3 mps 755 mmHg 67%
06:00 +24°C° 0 mm 3 mps 755 mmHg 62%
07:00 +25°C° 0 mm 4 mps 755 mmHg 57%
08:00 +27°C° 0 mm 4 mps 755 mmHg 53%
09:00 +28°C° 0 mm 3 mps 755 mmHg 49%
10:00 +29°C° 0 mm 3 mps 755 mmHg 45%
11:00 +30°C° 0 mm 3 mps 755 mmHg 41%
12:00 +30°C° 0 mm 3 mps 754 mmHg 39%
13:00 +31°C° 0 mm 3 mps 754 mmHg 37%
14:00 +31°C° 0 mm 2 mps 754 mmHg 35%
15:00 +31°C° 0 mm 2 mps 753 mmHg 36%
16:00 +31°C° 0 mm 2 mps 753 mmHg 36%
17:00 +31°C° 0 mm 2 mps 752 mmHg 37%
18:00 +29°C° 0 mm 2 mps 752 mmHg 41%
19:00 +28°C° 0 mm 3 mps 753 mmHg 45%
20:00 +26°C° 0 mm 3 mps 753 mmHg 50%
21:00 +26°C° 0 mm 4 mps 753 mmHg 54%
22:00 +25°C° 0 mm 5 mps 753 mmHg 58%
23:00 +23°C° 0 mm 6 mps 753 mmHg 62%

13 July, Monday

Time Temperature Precipitation Wind Pressure Humidity
00:00 +22°C° 0 mm 8 mps 753 mmHg 68%
01:00 +19°C° 0 mm 9 mps 753 mmHg 74%
02:00 +17°C° 0 mm 10 mps 753 mmHg 79%
03:00 +17°C° 0 mm 11 mps 753 mmHg 79%
04:00 +16°C° 0 mm 11 mps 753 mmHg 78%
05:00 +16°C° 0 mm 11 mps 753 mmHg 78%
06:00 +16°C° 0.1 mm 11 mps 753 mmHg 78%
07:00 +16°C° 0.1 mm 11 mps 754 mmHg 77%
08:00 +14°C° 0.1 mm 10 mps 754 mmHg 77%
09:00 +16°C° 0.3 mm 10 mps 754 mmHg 73%
10:00 +17°C° 0.3 mm 10 mps 754 mmHg 69%
11:00 +18°C° 0.3 mm 10 mps 754 mmHg 65%
12:00 +19°C° 0 mm 10 mps 754 mmHg 61%
13:00 +21°C° 0 mm 10 mps 754 mmHg 56%
14:00 +22°C° 0 mm 9 mps 754 mmHg 52%
15:00 +22°C° 0 mm 9 mps 754 mmHg 51%
16:00 +22°C° 0 mm 9 mps 754 mmHg 50%
17:00 +22°C° 0 mm 9 mps 754 mmHg 48%
18:00 +21°C° 0 mm 8 mps 754 mmHg 51%
19:00 +20°C° 0 mm 7 mps 754 mmHg 54%
20:00 +18°C° 0 mm 7 mps 755 mmHg 57%
21:00 +17°C° 0 mm 6 mps 755 mmHg 60%
22:00 +17°C° 0 mm 6 mps 755 mmHg 64%
23:00 +16°C° 0 mm 5 mps 755 mmHg 68%

14 July, Tuesday

Time Temperature Precipitation Wind Pressure Humidity
00:00 +15°C° 0 mm 5 mps 755 mmHg 70%
01:00 +15°C° 0 mm 5 mps 756 mmHg 72%
02:00 +14°C° 0 mm 5 mps 756 mmHg 75%
03:00 +14°C° 0 mm 5 mps 756 mmHg 77%
04:00 +14°C° 0 mm 5 mps 756 mmHg 79%
05:00 +13°C° 0 mm 5 mps 756 mmHg 81%
06:00 +15°C° 0 mm 5 mps 756 mmHg 73%
07:00 +17°C° 0 mm 6 mps 756 mmHg 65%
08:00 +19°C° 0 mm 6 mps 757 mmHg 56%
09:00 +21°C° 0 mm 6 mps 757 mmHg 50%
10:00 +22°C° 0 mm 5 mps 757 mmHg 44%
11:00 +25°C° 0 mm 5 mps 757 mmHg 38%
12:00 +26°C° 0 mm 5 mps 756 mmHg 36%
13:00 +26°C° 0 mm 5 mps 756 mmHg 35%
14:00 +27°C° 0 mm 5 mps 756 mmHg 33%
15:00 +27°C° 0 mm 5 mps 756 mmHg 34%
16:00 +27°C° 0 mm 4 mps 756 mmHg 35%
17:00 +27°C° 0 mm 4 mps 755 mmHg 36%
18:00 +25°C° 0 mm 4 mps 756 mmHg 42%
19:00 +24°C° 0 mm 3 mps 756 mmHg 48%
20:00 +21°C° 0 mm 3 mps 756 mmHg 53%
21:00 +20°C° 0 mm 3 mps 756 mmHg 56%
22:00 +20°C° 0 mm 3 mps 757 mmHg 58%
23:00 +19°C° 0 mm 3 mps 757 mmHg 60%

15 July, Wednesday

Time Temperature Precipitation Wind Pressure Humidity
00:00 +18°C° 0 mm 3 mps 757 mmHg 62%
01:00 +18°C° 0 mm 3 mps 757 mmHg 65%
02:00 +17°C° 0 mm 3 mps 757 mmHg 67%
03:00 +17°C° 0 mm 3 mps 757 mmHg 69%
04:00 +17°C° 0 mm 3 mps 757 mmHg 70%
05:00 +17°C° 0 mm 3 mps 758 mmHg 72%
06:00 +19°C° 0 mm 2 mps 758 mmHg 65%
07:00 +21°C° 0 mm 2 mps 758 mmHg 59%
08:00 +24°C° 0 mm 2 mps 758 mmHg 52%
09:00 +25°C° 0 mm 2 mps 758 mmHg 48%
10:00 +26°C° 0 mm 2 mps 758 mmHg 45%
11:00 +27°C° 0 mm 2 mps 758 mmHg 41%
12:00 +27°C° 0 mm 2 mps 758 mmHg 43%
13:00 +27°C° 0 mm 2 mps 758 mmHg 44%
14:00 +27°C° 0 mm 3 mps 758 mmHg 45%
15:00 +27°C° 0 mm 3 mps 758 mmHg 46%
16:00 +27°C° 0 mm 3 mps 758 mmHg 46%
17:00 +27°C° 0 mm 3 mps 757 mmHg 47%
18:00 +25°C° 0 mm 3 mps 757 mmHg 51%
19:00 +24°C° 0 mm 3 mps 758 mmHg 56%
20:00 +23°C° 0 mm 2 mps 758 mmHg 60%
21:00 +21°C° 0 mm 2 mps 758 mmHg 62%
22:00 +21°C° 0 mm 2 mps 758 mmHg 65%
23:00 +20°C° 0 mm 2 mps 758 mmHg 67%
Show more